Location: Asheville, NC
(35.6000°N, 82.5500°W)
Time: 05:47:10
(UTC-04:00)

KKS-1 - Pass Details

Date: 09 January 2018
Orbit: 637 x 651 km, 98.4° (Epoch: 20 April)

Event Time Altitude Azimuth Distance (km) Brightness Sun altitude
Rises 18:16:50 0° 6° (N) 2,945 ? -8.6°
Reaches altitude 10° 18:19:05 10° 2° (N) 2,034 ? -9.1°
Maximum altitude 18:23:22 52° 287° (WNW) 801 ? -9.9°
Drops below altitude 10° 18:27:39 10° 211° (SSW) 2,029 ? -10.7°
Sets 18:29:54 0° 206° (SSW) 2,937 ? -11.1°
